Weather History for Rapid City, SD

Change the Weather History Date:

Wednesday, November 13, 2013

  Actual Average Record
Temperature  
Mean Temperature 46 °F 36 °F  
Max Temperature 64 °F 48 °F 76 °F (1999)
Min Temperature 27 °F 23 °F -16 °F (1959)
Degree Days  
Heating Degree Days 19 29  
Month to date heating degree days 373 342  
Since 1 July heating degree days 1168 1104  
Cooling Degree Days 0 0  
Month to date cooling degree days 0 0  
Year to date cooling degree days 724 636  
Moisture  
Dew Point 30 °F    
Average Humidity 52    
Maximum Humidity 78    
Minimum Humidity 25    
Precipitation  
Precipitation 0.02 in 0.02 in 0.35 in (1985)
Month to date precipitation 0.38 0.28  
Year to date precipitation 21.14 15.62  
Snow  
Snow 0.00 in 0.20 in - ()
Month to date snowfall 4.0 2.6  
Since 1 July snowfall 24.8 4.4  
Since 1 September snowfall 24.8 4.4  
Snow Depth 0.00 in    
Sea Level Pressure  
Sea Level Pressure 30.08 in    
Wind  
Wind Speed 7 mph (NNW)    
Max Wind Speed 17 mph    
Max Gust Speed 20 mph    
Visibility 10 miles    
Events Rain    
T = Trace of Precipitation, MM = Missing Value Source: NWS Daily Summary

Daily Weather History Graph

Daily Weather History Graph

Search for Another Location

Airport:

Trip Planner

Search our weather history database for the weather conditions in past years. The results will help you decide how hot, cold, wet, or windy it might be!

Date:

Astronomy

Nov. 13, 2013 Rise Set
Actual Time 6:45 AM MST 4:27 PM MST
Civil Twilight 6:14 AM MST 4:58 PM MST
Nautical Twilight 5:39 AM MST 5:33 PM MST
Astronomical Twilight 5:05 AM MST 6:07 PM MST
Moon 2:23 PM MST (11/13) 2:32 AM MST (11/13)
Length of Visible Light 10h 44m
Length of Day
9h 42m
Waxing Gibbous, 85% of the Moon is Illuminated
Nov 13
Waxing Gibbous
Nov 17
Full
Nov 25
Last Quarter
Dec 2
New
Dec 9
First Quarter

Hourly Weather History & Observations

Time (MST) Temp. Windchill Dew Point Humidity Pressure Visibility Wind Dir Wind Speed Gust Speed Precip Events Conditions
12:52 AM 28.9 °F 25.2 °F 21.9 °F 75% 30.19 in 10.0 mi WNW 3.5 mph - N/A   Clear
1:52 AM 34.0 °F 28.8 °F 24.1 °F 67% 30.17 in 10.0 mi WNW 5.8 mph - N/A   Clear
2:52 AM 37.9 °F 32.7 °F 23.0 °F 55% 30.15 in 10.0 mi NW 6.9 mph - N/A   Clear
3:52 AM 39.9 °F 35.8 °F 21.9 °F 49% 30.14 in 10.0 mi NW 5.8 mph - N/A   Clear
4:52 AM 37.0 °F 31.0 °F 23.0 °F 57% 30.15 in 10.0 mi NW 8.1 mph - N/A   Clear
5:52 AM 37.0 °F 34.5 °F 23.0 °F 57% 30.15 in 10.0 mi WNW 3.5 mph - N/A   Clear
6:52 AM 44.1 °F 38.6 °F 25.0 °F 47% 30.14 in 10.0 mi NW 10.4 mph - N/A   Clear
7:52 AM 45.0 °F - 30.0 °F 56% 30.15 in 10.0 mi Calm Calm - N/A   Clear
8:52 AM 52.0 °F - 28.9 °F 41% 30.14 in 10.0 mi Calm Calm - N/A   Clear
9:52 AM 62.1 °F - 28.0 °F 28% 30.10 in 10.0 mi North 8.1 mph - N/A   Clear
10:52 AM 62.1 °F - 27.0 °F 26% 30.11 in 10.0 mi North 15.0 mph - N/A   Clear
11:52 AM 59.0 °F - 30.9 °F 35% 30.09 in 10.0 mi North 10.4 mph - N/A   Clear
12:52 PM 63.0 °F - 30.0 °F 29% 30.06 in 10.0 mi North 13.8 mph - N/A   Clear
1:52 PM 63.0 °F - 28.9 °F 28% 30.02 in 10.0 mi NNE 9.2 mph - N/A   Clear
2:52 PM 61.0 °F - 33.1 °F 35% 30.01 in 10.0 mi NNE 5.8 mph - N/A   Clear
3:52 PM 55.9 °F - 34.0 °F 44% 29.99 in 10.0 mi ENE 4.6 mph - N/A   Clear
4:52 PM 45.0 °F 43.5 °F 32.0 °F 60% 30.03 in 10.0 mi NE 3.5 mph - N/A   Clear
5:52 PM 43.0 °F 41.3 °F 32.0 °F 65% 30.05 in 10.0 mi NW 3.5 mph - N/A   Clear
6:52 PM 45.0 °F 41.8 °F 34.0 °F 65% 30.03 in 10.0 mi NNW 5.8 mph - N/A   Overcast
7:52 PM 45.0 °F 40.6 °F 33.1 °F 63% 30.02 in 10.0 mi North 8.1 mph - N/A   Overcast
8:52 PM 48.0 °F - 34.0 °F 58% 30.01 in 10.0 mi North 9.2 mph - N/A   Overcast
9:52 PM 48.0 °F - 36.0 °F 63% 29.99 in 10.0 mi North 11.5 mph - 0.00 in Rain Light Rain
10:52 PM 46.9 °F - 37.9 °F 71% 30.00 in 10.0 mi NNW 16.1 mph - 0.00 in Rain Light Rain
11:52 PM 45.0 °F 40.1 °F 39.9 °F 82% 30.02 in 10.0 mi NNW 9.2 mph - 0.02 in Rain Light Rain